This is the latest recevied weather packets stored in our database for station/object LU1MQF-13. If no packets are shown the sender has not sent any weather packets the latest 10 day(s).
| Time | Temp. | Humidity | Pressure | Rain* | Wind** | Luminosity | Snow |
|---|---|---|---|---|---|---|---|
| 1778050630 | 16.11° C | 52% | 933 hPa | - | - | - | - |
| 1778049730 | 16.11° C | 52% | 933.3 hPa | - | - | - | - |
| 1778048830 | 16.11° C | 52% | 933.5 hPa | - | - | - | - |
| 1778047930 | 16.11° C | 53% | 933 hPa | - | - | - | - |
| 1778047030 | 16.11° C | 53% | 933.4 hPa | - | - | - | - |
| 1778046130 | 16.11° C | 53% | 933.8 hPa | - | - | - | - |
| 1778045230 | 16.11° C | 53% | 933.6 hPa | - | - | - | - |
| 1778044330 | 16.11° C | 53% | 933.6 hPa | - | - | - | - |
| 1778043430 | 16.11° C | 53% | 933.8 hPa | - | - | - | - |
| 1778042530 | 16.11° C | 54% | 934 hPa | - | - | - | - |
| 1778041630 | 16.11° C | 54% | 934.2 hPa | - | - | - | - |
| 1778040730 | 17.22° C | 56% | 934.3 hPa | - | - | - | - |
| 1778039830 | 16.11° C | 54% | 934.4 hPa | - | - | - | - |
| 1778038930 | 17.22° C | 55% | 934.6 hPa | - | - | - | - |
| 1778038030 | 16.11° C | 53% | 934.8 hPa | - | - | - | - |
| 1778037130 | 17.22° C | 55% | 934.9 hPa | - | - | - | - |
| 1778036229 | 17.22° C | 56% | 935 hPa | - | - | - | - |
| 1778035329 | 17.22° C | 60% | 935.1 hPa | - | - | - | - |
| 1778034429 | 17.22° C | 55% | 935.2 hPa | - | - | - | - |
| 1778033529 | 17.22° C | 55% | 935.2 hPa | - | - | - | - |
| 1778032629 | 17.22° C | 55% | 935.3 hPa | - | - | - | - |
| 1778031729 | 17.78° C | 58% | 935.4 hPa | - | - | - | - |
| 1778030829 | 17.22° C | 56% | 935.4 hPa | - | - | - | - |
| 1778029929 | 17.22° C | 57% | 935.3 hPa | - | - | - | - |
| 1778029029 | 17.22° C | 55% | 935.2 hPa | - | - | - | - |
* Rain since midnight (hover to see other rain measurements)
** Current wind speed in m/s (hover to see current wind gust speed)